OAO 2

导读

OAO 2(轨道天文台2号,也叫“观星者”)是美国于1968年12月7日在卡纳维拉尔角发射的**全球首个空间望远镜**,属于NASA轨道天文台计划。它搭载了威斯康星实验包和 Smithsonian 紫外探测两套设备,对彗星开展重要观测,完成了5068颗紫外线恒星的编目,一直工作到1973年2月才正式停用,为早期紫外天文学发展奠定了关键基础。

Basic Information
目录编号:
3597
目录名称:
OAO 2
国际标识:
1968-110A
轨道中心:
EARTH
卫星名称:
OAO 2
卫星全名:
--
卫星状态:
在轨 (已飞行21097 天)
发射日期:
1968-12-07 UTC
国别 :
美国 (US)
星等 :
--
This satellite is enrolled in the Space Conjunction Data Service (SCDS) and the current flight risk assessment level is: No High Risk
Orbit Information
数据来源 国际轨道数据 AOE轨道数据
星历时间 2026-09-11T19:49:09+0800
8小时前
查看轨道信息
2026-09-06T02:00:00+0800
6天前
查看轨道信息
半长轴 7112.36km 7112.366km
偏心率 0.0006004 0.0005842
轨道倾角 34.994° 34.995°
近地点辐角 250.541° 210.108°
升交点赤经 307.773° 339.837°
平近点角 109.463° 62.351°
近地点 729.952km 730.073km
远地点 738.494km 738.385km
周期 99.490分钟 99.490分钟
每日圈数 14.473789 14.473771
Detailed Information
使用方式:
暂无
2D Orbit Map
3D Orbit Map
Orbit Altitude Analysis Chart
Orbit Inclination Analysis Chart
Orbit Comprehensive Analysis Chart
View Comprehensive Chart
Conjunction Data List
Event ID Objects TCA Miss Dist (km) Collision Risk Probability Collision Risk Index (CRI) Action
CDM_260911-035900-359702-511627
OAO 2 (3597)
2026-09-11T
03:59:31+0000
2.359 km
极远距离
9.983374E-7 极低风险 0.35
Miss Distance Evolution Trend with All Objects
Collision Probability Evolution Trend with All Objects